Location: Cruquius
(52.3348°N, 4.6319°E)
Time: 04:33:40
(UTC+00:00)

Cosmos 1680 Rocket - Pass Details

Date: 12 May 2021
Orbit: 759 x 782 km, 74.1° (Epoch: 14 June)

Event Time Altitude Azimuth Distance (km) Brightness Sun altitude
Rises 21:28:04 0° 334° (NNW) 3,278 8.7 -13.9°
Reaches altitude 10° 21:30:28 10° 334° (NNW) 2,348 7.5 -14.1°
Maximum altitude 21:35:49 85° 247° (WSW) 793 3.5 -14.5°
Enters shadow 21:39:17 22° 160° (SSE) 1,639 4.6 -14.8°
